DW3560 Weather Reports


time (UTC)temp
C
wind
direction
speed
KPH
gust
KPH
rain 1hr
cm
rain 24hr
cm
rain mn
cm
humidity
%
barometer
mb
20260504182502 16 341 3.2 8.0 0.00 0.00 0.00 70 1015.1
20260504182002 15 347 1.6 12.9 0.00 0.00 0.00 69 1015.1
20260504181502 15 348 1.6 12.9 0.00 0.00 0.00 69 1015.1
20260504181002 15 349 1.6 12.9 0.00 0.00 0.00 71 1014.8
20260504180523 15 343 3.2 12.9 0.00 0.00 0.00 71 1014.8
20260504180023 15 275 3.2 9.7 0.00 0.00 0.00 72 1014.8
20260504175502 15 238 3.2 8.0 0.00 0.00 0.00 71 1014.8
20260504175002 15 280 1.6 6.4 0.00 0.00 0.00 71 1014.8
20260504174502 15 312 1.6 6.4 0.00 0.00 0.00 73 1014.8
20260504174023 15 302 1.6 6.4 0.00 0.00 0.00 73 1014.8
20260504173502 15 251 1.6 6.4 0.00 0.00 0.00 74 1014.8
20260504173002 14 216 1.6 8.0 0.00 0.00 0.00 75 1014.8
20260504172502 14 228 1.6 8.0 0.00 0.00 0.00 75 1014.8
20260504172002 13 218 3.2 9.7 0.00 0.00 0.00 76 1014.8
20260504171502 13 209 3.2 9.7 0.00 0.00 0.00 77 1014.8
20260504171003 13 205 4.8 9.7 0.00 0.00 0.00 76 1014.0
20260504170502 13 187 4.8 9.7 0.00 0.00 0.00 77 1014.0
20260504151023 11 148 1.6 6.4 0.00 0.00 0.00 84 1014.0
20260504150502 10 153 1.6 6.4 0.00 0.00 0.00 85 1014.0
20260504141002 10 144 1.6 3.2 0.00 0.00 0.00 87 1014.0
20260504140502 10 145 1.6 4.8 0.00 0.00 0.00 87 1014.0
20260504130502 10 190 1.6 3.2 0.00 0.00 0.00 87 1014.0
20260504110502 10 169 0.0 3.2 0.00 0.00 0.00 90 1014.0
20260504100502 10 226 0.0 3.2 0.00 0.00 0.00 90 1014.0
20260504082003 10 189 1.6 6.4 0.00 0.00 0.00 89 1014.3
20260504081502 10 189 1.6 6.4 0.00 0.00 0.00 89 1014.3
20260504081002 10 190 1.6 4.8 0.00 0.00 0.00 89 1014.3
20260504080502 10 188 0.0 3.2 0.00 0.00 0.00 89 1014.3
20260504050502 11 254 1.6 6.4 0.00 0.00 0.00 85 1013.7
20260504050024 11 258 1.6 4.8 0.00 0.00 0.00 84 1013.7
20260504045503 11 239 0.0 4.8 0.00 0.00 0.00 84 1013.7
20260504045003 11 238 1.6 8.0 0.00 0.00 0.00 84 1013.7
20260504044503 11 242 1.6 8.0 0.00 0.00 0.00 83 1013.7
20260504044002 11 245 0.0 3.2 0.00 0.00 0.00 83 1013.7
20260504043503 11 245 0.0 3.2 0.00 0.00 0.00 83 1013.7
20260504043003 11 245 0.0 4.8 0.00 0.00 0.00 83 1013.7
20260504042503 11 247 1.6 4.8 0.00 0.00 0.00 82 1013.7
20260504042003 11 239 1.6 6.4 0.00 0.00 0.00 82 1013.7
20260504041503 11 229 1.6 6.4 0.00 0.00 0.00 82 1013.7
20260504041003 11 236 1.6 6.4 0.00 0.00 0.00 81 1013.1
20260504040502 11 239 1.6 6.4 0.00 0.00 0.00 81 1013.1
20260504040003 11 246 1.6 4.8 0.00 0.00 0.00 80 1013.1
20260504035502 11 247 1.6 4.8 0.00 0.00 0.00 80 1013.1
20260504035003 11 246 0.0 3.2 0.00 0.00 0.00 80 1013.1
20260504034503 11 239 0.0 3.2 0.00 0.00 0.00 80 1013.1
20260504034007 12 243 0.0 6.4 0.00 0.00 0.00 80 1013.1
20260504033503 12 260 1.6 6.4 0.00 0.00 0.00 79 1013.1
20260504033002 12 264 1.6 4.8 0.00 0.00 0.00 79 1013.1
20260504032504 12 263 1.6 9.7 0.00 0.00 0.00 79 1013.1
20260504032003 12 264 1.6 9.7 0.00 0.00 0.00 79 1013.1
20260504031503 12 242 0.0 8.0 0.00 0.00 0.00 79 1013.1
20260504031003 12 234 1.6 12.9 0.00 0.00 0.00 79 1012.5
20260504030503 12 239 1.6 12.9 0.00 0.00 0.00 79 1012.5
20260504030003 12 267 1.6 8.0 0.00 0.00 0.00 79 1012.5
20260504025524 12 255 1.6 12.9 0.00 0.00 0.00 79 1012.5
20260504025003 12 245 1.6 12.9 0.00 0.00 0.00 79 1012.5
20260504024503 12 221 1.6 11.3 0.00 0.00 0.00 79 1012.5
20260504024003 12 236 1.6 12.9 0.00 0.00 0.00 78 1012.5
20260504023503 12 232 1.6 12.9 0.00 0.00 0.00 78 1012.5
20260504023024 12 255 1.6 8.0 0.00 0.00 0.00 77 1012.5
20260504022524 13 303 0.0 8.0 0.00 0.00 0.00 78 1012.5
20260504022002 13 301 1.6 6.4 0.00 0.00 0.00 78 1012.5
20260504021524 13 293 1.6 6.4 0.00 0.00 0.00 77 1012.5
20260504021024 13 339 0.0 6.4 0.00 0.00 0.00 77 1012.6
20260504020503 13 347 1.6 6.4 0.00 0.00 0.00 77 1012.6
20260504020024 13 339 1.6 6.4 0.00 0.00 0.00 77 1012.6
20260504015502 13 324 1.6 14.5 0.00 0.00 0.00 77 1012.6
20260504015024 13 306 1.6 14.5 0.00 0.00 0.00 77 1012.6
20260504014524 13 290 1.6 12.9 0.00 0.00 0.00 76 1012.6
20260504014003 13 332 1.6 8.0 0.00 0.00 0.00 76 1012.6
20260504013502 13 344 1.6 6.4 0.00 0.00 0.00 75 1012.6
20260504013024 13 260 1.6 6.4 0.00 0.00 0.00 75 1012.6
20260504012503 13 249 1.6 6.4 0.00 0.00 0.00 76 1012.6
20260504012003 13 255 1.6 6.4 0.00 0.00 0.00 76 1012.6
20260504011503 13 233 1.6 6.4 0.00 0.00 0.00 75 1012.6
20260504011003 13 204 1.6 6.4 0.00 0.00 0.00 74 1012.6
20260504010503 13 220 1.6 6.4 0.00 0.00 0.00 74 1012.6
20260504010003 13 242 1.6 6.4 0.00 0.00 0.00 74 1012.6
20260504005503 13 268 1.6 8.0 0.00 0.00 0.00 74 1012.6
20260504005003 14 259 1.6 8.0 0.00 0.00 0.00 74 1012.6
20260504004503 14 250 1.6 8.0 0.00 0.00 0.00 74 1012.6
20260504004003 14 247 3.2 11.3 0.00 0.00 0.00 74 1012.6
20260504003503 14 240 1.6 11.3 0.00 0.00 0.00 73 1012.6
20260504003003 14 252 1.6 4.8 0.00 0.00 0.00 73 1012.6
20260504002503 15 250 1.6 8.0 0.00 0.00 0.00 73 1012.6
20260504002003 15 248 1.6 12.9 0.00 0.00 0.00 72 1012.6
20260504001503 14 242 3.2 12.9 0.00 0.00 0.00 72 1012.6
20260504001003 15 238 4.8 12.9 0.00 0.00 0.00 71 1012.6
20260504000503 15 248 4.8 12.9 0.00 0.00 0.00 70 1012.6
20260504000003 15 263 3.2 11.3 0.00 0.00 0.00 71 1012.6
20260503235503 15 242 3.2 12.9 0.00 0.00 0.00 72 1012.6
20260503235003 15 236 4.8 14.5 0.00 0.00 0.00 71 1012.6
20260503234524 15 241 3.2 14.5 0.00 0.00 0.00 72 1012.6
20260503234024 15 236 3.2 9.7 0.00 0.00 0.00 72 1012.6
20260503233503 15 234 3.2 17.7 0.00 0.00 0.00 72 1012.6
20260503233003 15 239 3.2 17.7 0.00 0.00 0.00 73 1012.6
20260503232503 15 242 3.2 12.9 0.00 0.00 0.00 73 1012.6
20260503232003 15 239 1.6 11.3 0.00 0.00 0.00 73 1012.6
20260503231524 15 243 1.6 6.4 0.00 0.00 0.00 73 1012.6
20260503231003 14 240 1.6 9.7 0.00 0.00 0.00 74 1012.6
20260503230503 14 233 3.2 9.7 0.00 0.00 0.00 74 1012.6
20260503230024 14 230 3.2 11.3 0.00 0.00 0.00 73 1012.6
20260503225524 14 231 3.2 11.3 0.00 0.00 0.00 73 1012.6
20260503225003 14 237 3.2 11.3 0.00 0.00 0.00 73 1012.6
20260503224503 15 226 3.2 8.0 0.00 0.00 0.00 73 1012.6
20260503224003 15 257 1.6 8.0 0.00 0.00 0.00 73 1012.6
20260503223503 15 285 1.6 6.4 0.00 0.00 0.00 73 1012.6
20260503223003 15 247 1.6 9.7 0.00 0.00 0.00 73 1012.6
20260503222503 15 248 1.6 9.7 0.00 0.00 0.00 73 1012.6
20260503222003 15 266 3.2 8.0 0.00 0.00 0.00 72 1012.6
20260503221503 15 294 1.6 8.0 0.00 0.00 0.00 72 1012.6
20260503221003 15 268 1.6 8.0 0.00 0.00 0.00 71 1012.7
20260503220503 15 243 3.2 8.0 0.00 0.00 0.00 70 1012.7
20260503220003 16 264 3.2 9.7 0.00 0.00 0.00 70 1012.7
20260503215503 16 262 3.2 9.7 0.00 0.00 0.00 71 1012.7
20260503215003 16 246 3.2 12.9 0.00 0.00 0.00 72 1012.7
20260503214503 15 243 3.2 12.9 0.00 0.00 0.00 71 1012.7
20260503214003 15 239 3.2 8.0 0.00 0.00 0.00 72 1012.7
20260503213524 15 263 1.6 6.4 0.00 0.00 0.00 73 1012.7
20260503213024 15 353 1.6 6.4 0.00 0.00 0.00 74 1012.7
20260503212524 15 250 1.6 8.0 0.00 0.00 0.00 74 1012.7
20260503212003 15 227 1.6 8.0 0.00 0.00 0.00 73 1012.7
20260503211524 15 246 1.6 8.0 0.00 0.00 0.00 73 1012.7
20260503211003 15 262 1.6 8.0 0.00 0.00 0.00 73 1012.7
20260503210503 15 263 1.6 6.4 0.00 0.00 0.00 73 1012.7
20260503210024 15 258 1.6 11.3 0.00 0.00 0.00 72 1012.7
20260503205503 15 230 1.6 11.3 0.00 0.00 0.00 72 1012.7
20260503205003 15 226 3.2 8.0 0.00 0.00 0.00 72 1012.7
20260503204503 15 238 3.2 11.3 0.00 0.00 0.00 72 1012.7
20260503204003 15 244 4.8 12.9 0.00 0.00 0.00 72 1012.7
20260503203503 15 240 4.8 12.9 0.00 0.00 0.00 70 1012.7
20260503203003 16 231 4.8 12.9 0.00 0.00 0.00 70 1012.7
20260503202503 16 228 3.2 12.9 0.00 0.00 0.00 70 1012.7
20260503202003 16 241 3.2 14.5 0.00 0.00 0.00 71 1012.7
20260503201503 15 242 3.2 14.5 0.00 0.00 0.00 73 1012.7
20260503201003 15 228 3.2 9.7 0.00 0.00 0.00 73 1010.9
20260503200503 15 237 3.2 11.3 0.00 0.00 0.00 74 1010.9
20260503200003 15 234 3.2 11.3 0.00 0.00 0.00 74 1010.9
20260503195503 15 232 4.8 11.3 0.00 0.00 0.00 73 1010.9
20260503195024 15 231 3.2 11.3 0.00 0.00 0.00 75 1010.9
20260503194503 14 219 3.2 9.7 0.00 0.00 0.00 74 1010.9
20260503194003 14 220 3.2 14.5 0.00 0.00 0.00 74 1010.9
20260503193503 14 226 3.2 14.5 0.00 0.00 0.00 73 1010.9
20260503193024 15 221 3.2 11.3 0.00 0.00 0.00 74 1010.9
20260503192503 14 222 4.8 12.9 0.00 0.00 0.00 73 1010.9
20260503192024 15 232 3.2 12.9 0.00 0.00 0.00 74 1010.9
20260503191503 15 247 3.2 12.9 0.00 0.00 0.00 76 1010.9
20260503191003 14 243 3.2 8.0 0.00 0.00 0.00 77 1010.9
20260503190503 14 223 3.2 8.0 0.00 0.00 0.00 79 1010.9
20260503190003 14 231 1.6 11.3 0.00 0.00 0.00 81 1010.9
20260503185503 13 237 1.6 11.3 0.00 0.00 0.00 81 1010.9
20260503185003 13 233 1.6 8.0 0.00 0.00 0.00 82 1010.9
20260503184524 13 246 1.6 6.4 0.00 0.00 0.00 83 1010.9
20260503184003 13 237 1.6 8.0 0.00 0.00 0.00 82 1010.9
20260503183503 13 233 1.6 8.0 0.00 0.00 0.00 83 1010.9
20260503183024 13 227 1.6 8.0 0.00 0.00 0.00 82 1010.9